TimeCET,TemperatureF,Dew PointF,Humidity,Sea Level PressureIn,VisibilityMPH,Wind Direction,Wind SpeedMPH,Gust SpeedMPH,PrecipitationIn,Events,Conditions,WindDirDegrees,DateUTC
6:00 AM,59.0,55.4,88,30.15,6.2,WSW,6.9,-,N/A,,Mostly Cloudy,250,2013-01-27 05:00:00
6:30 AM,59.0,55.4,88,30.15,6.2,WSW,4.6,-,N/A,,Mostly Cloudy,250,2013-01-27 05:30:00
7:00 AM,58,53,78,30.17,12,WSW,5.8,,,,Mostly Cloudy,240,2013-01-27 06:00:00
7:00 AM,59.0,53.6,82,30.18,6.2,WSW,5.8,-,N/A,,Mostly Cloudy,240,2013-01-27 06:00:00
7:30 AM,59.0,53.6,82,30.18,6.2,SW,6.9,-,N/A,,Mostly Cloudy,230,2013-01-27 06:30:00
8:00 AM,59.0,51.8,77,30.18,6.2,WSW,6.9,-,N/A,,Mostly Cloudy,250,2013-01-27 07:00:00
8:30 AM,57.2,51.8,82,30.18,6.2,SW,4.6,-,N/A,,Partly Cloudy,230,2013-01-27 07:30:00
9:00 AM,59.0,53.6,82,30.18,6.2,Variable,2.3,-,N/A,,Partly Cloudy,0,2013-01-27 08:00:00
9:30 AM,60.8,53.6,77,30.18,6.2,SW,4.6,-,N/A,,Partly Cloudy,230,2013-01-27 08:30:00
10:00 AM,60.8,53.6,77,30.18,6.2,WSW,8.1,-,N/A,,Partly Cloudy,250,2013-01-27 09:00:00
10:30 AM,60.8,53.6,77,30.21,6.2,West,9.2,-,N/A,,Partly Cloudy,260,2013-01-27 09:30:00
11:00 AM,60.8,53.6,77,30.21,-9999.0,WSW,8.1,-,N/A,,Clear,240,2013-01-27 10:00:00
11:30 AM,62.6,53.6,72,30.21,-9999.0,WSW,8.1,-,N/A,,Clear,240,2013-01-27 10:30:00
12:00 PM,62.6,53.6,72,30.21,-9999.0,West,6.9,-,N/A,,Clear,260,2013-01-27 11:00:00
12:30 PM,62.6,53.6,72,30.21,-9999.0,WNW,11.5,-,N/A,,Clear,290,2013-01-27 11:30:00
1:00 PM,63,53,63,30.19,19,WNW,10.4,,,,,290,2013-01-27 12:00:00
1:00 PM,64.4,55.4,73,30.18,-9999.0,WNW,10.4,-,N/A,,Clear,290,2013-01-27 12:00:00
1:30 PM,62.6,55.4,77,30.21,6.2,West,12.7,24.2,N/A,,Partly Cloudy,280,2013-01-27 12:30:00
2:00 PM,62.6,55.4,77,30.18,6.2,West,10.4,-,N/A,,Partly Cloudy,280,2013-01-27 13:00:00
2:30 PM,62.6,55.4,77,30.18,6.2,West,12.7,-,N/A,,Partly Cloudy,260,2013-01-27 13:30:00
3:00 PM,62.6,53.6,72,30.18,6.2,West,13.8,-,N/A,,Scattered Clouds,260,2013-01-27 14:00:00
3:30 PM,62.6,53.6,72,30.18,6.2,West,10.4,21.9,N/A,,Partly Cloudy,270,2013-01-27 14:30:00
4:00 PM,62.6,53.6,72,30.15,6.2,West,13.8,25.3,N/A,,Partly Cloudy,260,2013-01-27 15:00:00
4:30 PM,62.6,55.4,77,30.15,6.2,West,15.0,-,N/A,,Partly Cloudy,270,2013-01-27 15:30:00
5:00 PM,60.8,53.6,77,30.15,-9999.0,West,12.7,-,N/A,,Clear,260,2013-01-27 16:00:00
5:30 PM,60.8,53.6,77,30.15,-9999.0,West,16.1,-,N/A,,Clear,260,2013-01-27 16:30:00
6:00 PM,60.8,53.6,77,30.18,-9999.0,West,12.7,-,N/A,,Clear,260,2013-01-27 17:00:00
6:30 PM,60.8,53.6,77,30.18,-9999.0,West,12.7,-,N/A,,Clear,260,2013-01-27 17:30:00
7:00 PM,59,53,76,30.17,19,West,12.7,,,,Scattered Clouds,260,2013-01-27 18:00:00
7:00 PM,59.0,53.6,82,30.18,-9999.0,WSW,10.4,-,N/A,,Clear,250,2013-01-27 18:00:00
7:30 PM,59.0,53.6,82,30.18,-9999.0,West,13.8,-,N/A,,Clear,260,2013-01-27 18:30:00